RYR7HN EIDW-EGSS

Flight info

Callsign RYR7HN
Flight time 0h 49m
Altitude 33000
Route ENDEQ1E ENDEQ Q36 NOSLO Z197 LISTO
Aircraft B38M/M-SADE3FGILRWYSB1/LB1

Departure

Time 2026-05-06 20:21
Airport Dublin Airport (EIDW)

Arrival

Time 2026-05-06 21:10
Airport London Stansted Airport (EGSS)
Time Latitude Longitude Altitude Speed Heading
2026-05-06 19:45 53.42996 -6.24748 213 ft 0 kts
2026-05-06 20:09 53.42992 -6.24749 213 ft 2 kts
2026-05-06 20:09 53.42975 -6.24752 216 ft 3 kts 10°
2026-05-06 20:09 53.42956 -6.24758 213 ft 3 kts
2026-05-06 20:10 53.42945 -6.24753 213 ft 2 kts 301°
2026-05-06 20:10 53.42940 -6.24737 213 ft 2 kts 294°
2026-05-06 20:10 53.42937 -6.24716 215 ft 1 kts 275°
2026-05-06 20:10 53.42937 -6.24714 215 ft 0 kts 275°
2026-05-06 20:15 53.42937 -6.24723 213 ft 3 kts 275°
2026-05-06 20:15 53.42941 -6.24806 213 ft 9 kts 266°
2026-05-06 20:15 53.42904 -6.24893 213 ft 6 kts 226°
2026-05-06 20:16 53.42866 -6.24962 213 ft 10 kts 228°
2026-05-06 20:16 53.42809 -6.25049 218 ft 11 kts 224°
2026-05-06 20:16 53.42796 -6.25166 213 ft 12 kts 272°
2026-05-06 20:16 53.42767 -6.25301 213 ft 15 kts 225°
2026-05-06 20:17 53.42675 -6.25453 214 ft 22 kts 225°
2026-05-06 20:17 53.42558 -6.25657 213 ft 26 kts 225°
2026-05-06 20:17 53.42439 -6.25859 213 ft 23 kts 225°
2026-05-06 20:17 53.42327 -6.26051 216 ft 21 kts 226°
2026-05-06 20:18 53.42266 -6.26245 213 ft 20 kts 264°
2026-05-06 20:18 53.42278 -6.26502 218 ft 24 kts 275°
2026-05-06 20:18 53.42295 -6.26815 213 ft 29 kts 275°
2026-05-06 20:18 53.42313 -6.27149 219 ft 27 kts 275°
2026-05-06 20:19 53.42331 -6.27477 213 ft 30 kts 275°
2026-05-06 20:19 53.42348 -6.27787 215 ft 25 kts 276°
2026-05-06 20:19 53.42363 -6.28055 215 ft 21 kts 275°
2026-05-06 20:19 53.42373 -6.28243 217 ft 11 kts 272°
2026-05-06 20:20 53.42316 -6.28323 214 ft 13 kts 177°
2026-05-06 20:20 53.42235 -6.28241 218 ft 15 kts 142°
2026-05-06 20:20 53.42192 -6.28114 222 ft 13 kts 94°
2026-05-06 20:20 53.42181 -6.27889 214 ft 38 kts 95°
2026-05-06 20:21 53.42130 -6.26970 214 ft 117 kts 95°
2026-05-06 20:21 53.42042 -6.25305 436 ft 156 kts 97°
2026-05-06 20:21 53.41923 -6.23422 1117 ft 167 kts 97°
2026-05-06 20:21 53.41814 -6.21444 2027 ft 173 kts 97°
2026-05-06 20:22 53.41699 -6.19303 2738 ft 195 kts 97°
2026-05-06 20:22 53.41580 -6.17081 3558 ft 204 kts 96°
2026-05-06 20:22 53.41446 -6.14632 4445 ft 218 kts 96°
2026-05-06 20:22 53.41301 -6.11992 5180 ft 238 kts 96°
2026-05-06 20:23 53.41141 -6.09113 5903 ft 258 kts 96°
2026-05-06 20:23 53.41027 -6.07084 6399 ft 270 kts 96°
2026-05-06 20:23 53.40915 -6.03859 7217 ft 282 kts 89°
2026-05-06 20:23 53.41108 -6.00595 8298 ft 285 kts 84°
2026-05-06 20:24 53.41345 -5.97233 9082 ft 292 kts 84°
2026-05-06 20:24 53.41586 -5.93845 10174 ft 295 kts 84°
2026-05-06 20:24 53.41837 -5.90341 10819 ft 312 kts 83°
2026-05-06 20:24 53.42101 -5.86645 11477 ft 326 kts 83°
2026-05-06 20:25 53.42375 -5.82792 12209 ft 337 kts 83°
2026-05-06 20:25 53.42644 -5.78867 13154 ft 341 kts 84°
2026-05-06 20:25 53.42914 -5.74874 14024 ft 348 kts 84°
2026-05-06 20:25 53.43187 -5.70813 14840 ft 353 kts 84°
2026-05-06 20:26 53.43463 -5.66702 15695 ft 357 kts 83°
2026-05-06 20:26 53.43740 -5.62547 16527 ft 361 kts 83°
2026-05-06 20:26 53.44018 -5.58341 17344 ft 365 kts 83°
2026-05-06 20:26 53.44299 -5.54090 18144 ft 370 kts 83°
2026-05-06 20:27 53.44545 -5.49765 18824 ft 374 kts 89°
2026-05-06 20:27 53.44454 -5.45386 19531 ft 377 kts 92°
2026-05-06 20:27 53.44349 -5.40986 20205 ft 380 kts 92°
2026-05-06 20:27 53.44241 -5.36549 20880 ft 383 kts 92°
2026-05-06 20:28 53.44129 -5.32067 21557 ft 385 kts 92°
2026-05-06 20:28 53.44015 -5.27559 22228 ft 388 kts 91°
2026-05-06 20:28 53.43898 -5.23019 22891 ft 391 kts 91°
2026-05-06 20:28 53.43779 -5.18449 23547 ft 395 kts 91°
2026-05-06 20:29 53.43640 -5.13832 24107 ft 398 kts 92°
2026-05-06 20:29 53.43478 -5.09175 24651 ft 401 kts 95°
2026-05-06 20:29 53.43103 -5.04527 25203 ft 404 kts 97°
2026-05-06 20:29 53.42683 -4.99861 25763 ft 406 kts 97°
2026-05-06 20:30 53.42262 -4.95163 26305 ft 409 kts 97°
2026-05-06 20:30 53.41410 -4.85674 27370 ft 415 kts 96°
2026-05-06 20:30 53.40976 -4.80877 27871 ft 418 kts 96°
2026-05-06 20:31 53.40538 -4.76047 28402 ft 420 kts 96°
2026-05-06 20:31 53.40095 -4.71198 28908 ft 422 kts 96°
2026-05-06 20:31 53.39648 -4.66321 29404 ft 425 kts 96°
2026-05-06 20:31 53.39196 -4.61415 29894 ft 428 kts 96°
2026-05-06 20:32 53.38737 -4.56451 30300 ft 431 kts 96°
2026-05-06 20:32 53.38275 -4.51485 30687 ft 434 kts 96°
2026-05-06 20:32 53.37809 -4.46486 31099 ft 435 kts 96°
2026-05-06 20:32 53.37338 -4.41462 31502 ft 438 kts 96°
2026-05-06 20:33 53.36861 -4.36408 31929 ft 438 kts 95°
2026-05-06 20:33 53.36386 -4.31388 32477 ft 436 kts 95°
2026-05-06 20:33 53.35910 -4.26381 32938 ft 436 kts 95°
2026-05-06 20:34 53.34955 -4.16427 33010 ft 432 kts 95°
2026-05-06 20:34 53.34002 -4.06569 33016 ft 432 kts 95°
2026-05-06 20:35 53.33034 -3.96649 33008 ft 432 kts 95°
2026-05-06 20:35 53.32059 -3.86739 33007 ft 432 kts 95°
2026-05-06 20:36 53.31074 -3.76824 33008 ft 432 kts 95°
2026-05-06 20:36 53.30084 -3.66933 33009 ft 432 kts 96°
2026-05-06 20:37 53.29082 -3.57022 33018 ft 432 kts 96°
2026-05-06 20:37 53.28071 -3.47099 33012 ft 433 kts 96°
2026-05-06 20:38 53.27051 -3.37177 33008 ft 433 kts 96°
2026-05-06 20:38 53.26022 -3.27251 33019 ft 433 kts 96°
2026-05-06 20:39 53.24985 -3.17333 33023 ft 433 kts 96°
2026-05-06 20:39 53.23942 -3.07438 33017 ft 433 kts 96°
2026-05-06 20:40 53.22894 -2.97587 33027 ft 436 kts 96°
2026-05-06 20:40 53.21828 -2.87641 33019 ft 435 kts 97°
2026-05-06 20:41 53.20755 -2.77715 33024 ft 435 kts 97°
2026-05-06 20:41 53.19680 -2.67849 33029 ft 435 kts 97°
2026-05-06 20:42 53.18590 -2.57920 33034 ft 435 kts 97°
2026-05-06 20:42 53.17493 -2.48018 33048 ft 437 kts 98°
2026-05-06 20:43 53.16373 -2.37988 33038 ft 437 kts 98°
2026-05-06 20:43 53.14730 -2.28467 33021 ft 442 kts 118°
2026-05-06 20:43 53.12856 -2.24421 33056 ft 446 kts 134°
2026-05-06 20:44 53.10405 -2.21205 33069 ft 449 kts 142°
2026-05-06 20:44 53.05551 -2.14674 33069 ft 449 kts 139°
2026-05-06 20:45 53.00760 -2.08020 33041 ft 449 kts 138°
2026-05-06 20:45 52.95988 -2.01385 33049 ft 445 kts 139°
2026-05-06 20:45 52.93649 -1.98143 32722 ft 435 kts 139°
2026-05-06 20:46 52.91325 -1.94919 32019 ft 436 kts 139°
2026-05-06 20:46 52.88991 -1.91684 31275 ft 438 kts 139°
2026-05-06 20:46 52.86650 -1.88450 30710 ft 436 kts 140°
2026-05-06 20:46 52.84136 -1.85692 30164 ft 434 kts 153°
2026-05-06 20:47 52.81481 -1.83400 29574 ft 430 kts 150°
2026-05-06 20:47 52.78902 -1.80965 29042 ft 426 kts 149°
2026-05-06 20:47 52.76354 -1.78523 28556 ft 421 kts 149°
2026-05-06 20:47 52.73845 -1.76097 28061 ft 416 kts 150°
2026-05-06 20:48 52.71361 -1.73683 27564 ft 412 kts 150°
2026-05-06 20:48 52.68918 -1.71308 27085 ft 408 kts 150°
2026-05-06 20:48 52.66483 -1.68943 26622 ft 404 kts 150°
2026-05-06 20:48 52.64079 -1.66610 26169 ft 400 kts 150°
2026-05-06 20:49 52.61676 -1.64282 25717 ft 397 kts 150°
2026-05-06 20:49 52.59303 -1.61986 25272 ft 394 kts 150°
2026-05-06 20:49 52.56967 -1.59727 24847 ft 391 kts 150°
2026-05-06 20:49 52.54648 -1.57489 24473 ft 389 kts 150°
2026-05-06 20:50 52.52327 -1.55251 24048 ft 386 kts 151°
2026-05-06 20:50 52.50014 -1.53022 23624 ft 384 kts 151°
2026-05-06 20:50 52.47719 -1.50815 23150 ft 381 kts 151°
2026-05-06 20:50 52.45468 -1.48653 22737 ft 377 kts 151°
2026-05-06 20:51 52.43212 -1.46488 22337 ft 373 kts 151°
2026-05-06 20:51 52.40985 -1.44354 21960 ft 369 kts 151°
2026-05-06 20:51 52.38777 -1.42241 21567 ft 366 kts 151°
2026-05-06 20:51 52.36619 -1.40177 21191 ft 362 kts 151°
2026-05-06 20:52 52.34451 -1.38107 20816 ft 359 kts 151°
2026-05-06 20:52 52.32310 -1.36064 20445 ft 356 kts 151°
2026-05-06 20:52 52.30181 -1.34036 20088 ft 353 kts 151°
2026-05-06 20:52 52.28071 -1.32041 19654 ft 353 kts 151°
2026-05-06 20:53 52.25951 -1.30038 19295 ft 350 kts 151°
2026-05-06 20:53 52.23847 -1.28053 18937 ft 347 kts 151°
2026-05-06 20:53 52.21771 -1.26096 18564 ft 345 kts 151°
2026-05-06 20:53 52.19701 -1.24148 18182 ft 343 kts 151°
2026-05-06 20:54 52.17641 -1.22210 17768 ft 340 kts 151°
2026-05-06 20:54 52.15596 -1.20287 17394 ft 338 kts 151°
2026-05-06 20:54 52.13633 -1.18246 17223 ft 330 kts 139°
2026-05-06 20:54 52.12235 -1.15424 17066 ft 324 kts 121°
2026-05-06 20:55 52.11327 -1.12038 16596 ft 331 kts 105°
2026-05-06 20:55 52.10799 -1.08359 15856 ft 341 kts 102°
2026-05-06 20:55 52.10249 -1.04562 15134 ft 349 kts 103°
2026-05-06 20:55 52.09666 -1.00652 14411 ft 352 kts 103°
2026-05-06 20:56 52.09091 -0.96849 13727 ft 347 kts 103°
2026-05-06 20:56 52.08508 -0.93024 12973 ft 341 kts 103°
2026-05-06 20:56 52.07953 -0.89397 12281 ft 336 kts 103°
2026-05-06 20:56 52.07392 -0.85744 11608 ft 330 kts 103°
2026-05-06 20:57 52.06839 -0.82153 11073 ft 322 kts 103°
2026-05-06 20:57 52.06306 -0.78698 10714 ft 311 kts 103°
2026-05-06 20:57 52.05792 -0.75355 10382 ft 299 kts 103°
2026-05-06 20:57 52.05299 -0.72168 10214 ft 281 kts 103°
2026-05-06 20:58 52.04836 -0.69178 10091 ft 269 kts 103°
2026-05-06 20:58 52.04379 -0.66235 9839 ft 269 kts 103°
2026-05-06 20:58 52.03921 -0.63299 9514 ft 269 kts 103°
2026-05-06 20:58 52.03461 -0.60362 9192 ft 268 kts 103°
2026-05-06 20:59 52.03003 -0.57439 8911 ft 266 kts 103°
2026-05-06 20:59 52.02548 -0.54545 8635 ft 264 kts 103°
2026-05-06 20:59 52.02096 -0.51667 8345 ft 262 kts 104°
2026-05-06 20:59 52.01650 -0.48837 8040 ft 255 kts 104°
2026-05-06 21:00 52.01322 -0.46056 7774 ft 249 kts 94°
2026-05-06 21:00 52.01252 -0.43278 7541 ft 248 kts 91°
2026-05-06 21:00 52.01224 -0.40489 7277 ft 246 kts 91°
2026-05-06 21:00 52.01204 -0.37726 7025 ft 244 kts 91°
2026-05-06 21:01 52.01144 -0.34988 6767 ft 242 kts 100°
2026-05-06 21:01 52.00518 -0.32507 6565 ft 236 kts 122°
2026-05-06 21:01 51.99602 -0.30312 6451 ft 235 kts 128°
2026-05-06 21:01 51.98573 -0.28257 6319 ft 234 kts 130°
2026-05-06 21:02 51.97690 -0.26051 6091 ft 235 kts 110°
2026-05-06 21:02 51.97211 -0.23509 5855 ft 236 kts 106°
2026-05-06 21:02 51.96766 -0.20944 5637 ft 236 kts 106°
2026-05-06 21:02 51.96317 -0.18383 5431 ft 236 kts 105°
2026-05-06 21:03 51.95866 -0.15833 5224 ft 236 kts 106°
2026-05-06 21:03 51.95358 -0.13315 5026 ft 236 kts 117°
2026-05-06 21:03 51.94521 -0.11036 4818 ft 235 kts 121°
2026-05-06 21:03 51.93672 -0.08782 4757 ft 235 kts 121°
2026-05-06 21:04 51.92629 -0.06769 4628 ft 234 kts 143°
2026-05-06 21:04 51.91238 -0.05404 4525 ft 236 kts 150°
2026-05-06 21:04 51.89817 -0.04156 4427 ft 236 kts 151°
2026-05-06 21:04 51.88361 -0.02899 4258 ft 237 kts 151°
2026-05-06 21:05 51.86917 -0.01669 3979 ft 232 kts 150°
2026-05-06 21:05 51.85514 -0.00472 3731 ft 222 kts 150°
2026-05-06 21:05 51.84181 0.00664 3514 ft 212 kts 150°
2026-05-06 21:05 51.82904 0.01753 3276 ft 203 kts 150°
2026-05-06 21:06 51.81676 0.02801 3080 ft 197 kts 150°
2026-05-06 21:06 51.80491 0.03808 2996 ft 187 kts 150°
2026-05-06 21:06 51.79446 0.04880 2853 ft 175 kts 130°
2026-05-06 21:06 51.78981 0.06579 2700 ft 159 kts 88°
2026-05-06 21:07 51.79274 0.08250 2630 ft 156 kts 62°
2026-05-06 21:07 51.79811 0.09753 2502 ft 156 kts 56°
2026-05-06 21:07 51.80444 0.11181 2343 ft 156 kts 49°
2026-05-06 21:07 51.81173 0.12477 2160 ft 156 kts 45°
2026-05-06 21:08 51.81954 0.13682 1961 ft 157 kts 43°
2026-05-06 21:08 51.82741 0.14859 1802 ft 150 kts 43°
2026-05-06 21:08 51.83482 0.15967 1600 ft 138 kts 43°
2026-05-06 21:08 51.84163 0.16987 1381 ft 130 kts 42°
2026-05-06 21:09 51.84824 0.17976 1191 ft 130 kts 38°
2026-05-06 21:09 51.85494 0.18975 981 ft 131 kts 41°
2026-05-06 21:09 51.86157 0.19977 805 ft 130 kts 40°
2026-05-06 21:09 51.86823 0.20968 631 ft 131 kts 39°
2026-05-06 21:10 51.87264 0.21633 505 ft 132 kts 41°
2026-05-06 21:10 51.87943 0.22651 359 ft 132 kts 41°
2026-05-06 21:10 51.88504 0.23485 349 ft 79 kts 43°
2026-05-06 21:10 51.88786 0.23926 346 ft 44 kts 51°
2026-05-06 21:11 51.88891 0.24283 359 ft 24 kts 74°
2026-05-06 21:11 51.88920 0.24443 358 ft 8 kts 76°
2026-05-06 21:11 51.88904 0.24534 359 ft 10 kts 98°
2026-05-06 21:11 51.88943 0.24630 361 ft 12 kts 41°
2026-05-06 21:12 51.89015 0.24735 351 ft 16 kts 44°
2026-05-06 21:12 51.89102 0.24870 352 ft 19 kts 43°
2026-05-06 21:12 51.89204 0.25027 356 ft 20 kts 54°
2026-05-06 21:12 51.89275 0.25197 357 ft 19 kts 50°
2026-05-06 21:13 51.89371 0.25341 356 ft 12 kts 43°
2026-05-06 21:13 51.89419 0.25445 352 ft 13 kts 82°
2026-05-06 21:13 51.89377 0.25576 358 ft 14 kts 117°
2026-05-06 21:13 51.89326 0.25685 353 ft 13 kts 133°
2026-05-06 21:14 51.89272 0.25781 351 ft 13 kts 132°
2026-05-06 21:14 51.89208 0.25892 355 ft 11 kts 133°
2026-05-06 21:14 51.89167 0.25963 357 ft 7 kts 132°
2026-05-06 21:14 51.89163 0.26007 351 ft 2 kts 61°
2026-05-06 21:15 51.89180 0.26038 357 ft 4 kts 42°
2026-05-06 21:15 51.89187 0.26047 355 ft 0 kts 42°